Regional Weather Roundup
Issued by NWS

Home | Current Version | Previous Version | Graphics & Text | Print | Product List | Glossary On
Versions: 1 2 3 4 5 6 7 8 9 10 11 12 13 14 15 16 17 18 19 20 21 22 23 24 25 26 27 28 29 30 31 32 33 34 35 36 37 38 39 40 41 42 43 44 45 46 47 48 49 50
627
ASUS43 KTOP 250508
RWRKS

WEATHER ROUNDUP FOR KANSAS
NATIONAL WEATHER SERVICE GOODLAND KS
1200 AM CDT TUE JUL 25 2017

NOTE:  "FAIR" INDICATES FEW OR NO CLOUDS BELOW 12,000 FEET WITH NO
SIGNIFICANT WEATHER AND/OR OBSTRUCTIONS TO VISIBILITY.

KSZ001>006-013>018-027>032-041>047-250600-
NORTHWEST KANSAS

CITY           SKY/WX    TMP DP  RH WIND       PRES   REMARKS
GOODLAND       CLEAR     76  58  53 S14       30.03S
HAYS             N/A     81  60  48 S12       30.00R
HILL CITY      PTCLDY    80  55  42 S7        30.00R
RUSSELL        CLEAR     78  62  57 SE9       30.00R
$$

KSZ061>065-074>080-084>089-250600-
SOUTHWEST KANSAS

CITY           SKY/WX    TMP DP  RH WIND       PRES   REMARKS
DODGE CITY     CLEAR     77  58  51 SE12      30.03R
ELKHART          N/A     72  55  55 SE12        N/A
GARDEN CITY    CLEAR     76  57  51 S8        30.04R
GREAT BEND     CLEAR     80  63  55 S10       30.01R
LIBERAL        CLEAR     78  65  63 S13       30.06R
PRATT          CLEAR     79  61  52 S9        30.03R
$$

KSZ066>073-081>083-090>101-250600-
SOUTHEAST KANSAS

CITY           SKY/WX    TMP DP  RH WIND       PRES   REMARKS
CHANUTE        CLEAR     80  73  79 E5        30.01R
COFFEYVILLE    CLEAR     79  73  82 CALM      30.00R
HUTCHINSON     CLEAR     79  66  64 SE6       30.01R
MEDICINE LODGE   N/A     83  65  54 SE9       30.00R
NEWTON         CLEAR     76  70  82 SE8       30.03R
PARSONS        CLEAR     75  73  93 CALM      30.02R
WICHITA INTL   CLEAR     79  68  69 S8        30.01R
WICHITA JABRA  CLEAR     78  69  73 S5        30.01R
WICHITA MCCONL CLEAR     81  67  63 S7        30.02R
WINFIELD       CLEAR     79  69  71 SE5       30.02R
$$

KSZ007>012-019>026-033>040-048>060-102>105-250600-
NORTHEAST KANSAS

CITY           SKY/WX    TMP DP  RH WIND       PRES   REMARKS
CONCORDIA      PTCLDY    77  73  87 SE8       30.00R
EMPORIA        CLEAR     77  73  87 SE6       30.01R
LAWRENCE       CLEAR     74  71  91 E3        30.02R
MANHATTAN      CLEAR     80  75  84 VRB3      30.00R
MARYSVILLE     CLEAR     77  72  83 SE8       30.01R
OLATHE IND     CLEAR     75  68  78 E8        30.04R
OLATHE EXE     CLEAR     74  69  85 E6        30.04R
SALINA         CLEAR     84  69  60 SE12      29.99R
TOPEKA BILLARD CLEAR     76  72  87 E3        30.01R
TOPEKA FORBES  CLEAR     78  74  87 SE5       30.02R
$$




USA.gov is the U.S. government's official web portal to all federal, state and local government web resources and services.